Weather History for KCTB - July, 2013

Change the Weather History Date:

Saturday, July 13, 2013

  Actual Average Record
Temperature  
Mean Temperature 61 °F 64 °F  
Max Temperature 70 °F 79 °F 99 °F (2000)
Min Temperature 51 °F 50 °F 40 °F (1909)
Degree Days  
Heating Degree Days 4 3  
Month to date heating degree days 22 49  
Since 1 June heating degree days 231 282  
Since 1 July heating degree days 22 49  
Cooling Degree Days 0 2  
Month to date cooling degree days 47 21  
Year to date cooling degree days 61 38  
Since 1 June cooling degree days 59 36  
Growing Degree Days 10 (Base 50)    
Moisture  
Dew Point 44 °F    
Average Humidity 62    
Maximum Humidity 83    
Minimum Humidity 40    
Precipitation  
Precipitation 0.05 in 0.04 in 1.62 in (1970)
Month to date precipitation 1.42 0.64  
Year to date precipitation 9.21 6.83  
Snow  
Snow 0.00 in - - ()
Snow Depth 0.00 in    
Sea Level Pressure  
Sea Level Pressure 30.05 in    
Wind  
Wind Speed 13 mph (North)    
Max Wind Speed 30 mph    
Max Gust Speed 37 mph    
Visibility 10 miles    
Events Rain    
T = Trace of Precipitation, MM = Missing Value Source: NWS Daily Summary

Daily Weather History Graph

Daily Weather History Graph

Search for Another Location

Airport or City:

Trip Planner

Search our weather history database for the weather conditions in past years. The results will help you decide how hot, cold, wet, or windy it might be!

Date:

Astronomy

Jul. 13, 2013 Rise Set
Actual Time 5:41 AM MDT 9:28 PM MDT
Civil Twilight 5:01 AM MDT 10:08 PM MDT
Nautical Twilight 4:05 AM MDT 11:03 PM MDT
Astronomical Twilight 2:43 AM MDT 12:24 AM MDT
Moon 11:32 AM MDT (7/13) 11:37 PM MDT (7/13)
Length of Visible Light 17h 07m
Length of Day
15h 47m
Waxing Crescent, 26% of the Moon is Illuminated
Jul 13
Waxing Crescent
Jul 15
First Quarter
Jul 22
Full
Jul 29
Last Quarter
Aug 6
New

Hourly Weather History & Observations

Time (MDT) Temp. Dew Point Humidity Pressure Visibility Wind Dir Wind Speed Gust Speed Precip Events Conditions
12:56 AM 61.0 °F 41.0 °F 48% 29.88 in 10.0 mi WNW 8.1 mph - N/A   Overcast
1:56 AM 60.1 °F 41.0 °F 49% 29.88 in 10.0 mi WSW 23.0 mph 31.1 mph N/A   Mostly Cloudy
2:56 AM 59.0 °F 39.9 °F 49% 29.89 in 10.0 mi West 20.7 mph 31.1 mph N/A   Overcast
3:56 AM 59.0 °F 41.0 °F 51% 29.88 in 10.0 mi West 21.9 mph 28.8 mph N/A   Overcast
4:56 AM 55.0 °F 44.1 °F 67% 29.91 in 10.0 mi West 21.9 mph 35.7 mph 0.00 in   Overcast
5:56 AM 54.0 °F 43.0 °F 66% 29.95 in 5.0 mi WNW 20.7 mph 31.1 mph 0.03 in Rain Rain
6:56 AM 51.1 °F 45.0 °F 80% 29.98 in 10.0 mi NNW 13.8 mph - 0.02 in   Mostly Cloudy
7:56 AM 52.0 °F 46.0 °F 80% 30.02 in 10.0 mi NNW 12.7 mph - N/A   Overcast
8:56 AM 52.0 °F 46.0 °F 80% 30.04 in 10.0 mi NNW 11.5 mph - N/A   Overcast
9:56 AM 55.9 °F 48.0 °F 75% 30.07 in 10.0 mi NNW 11.5 mph 19.6 mph N/A   Partly Cloudy
10:56 AM 59.0 °F 46.9 °F 64% 30.08 in 10.0 mi North 11.5 mph - N/A   Clear
11:56 AM 62.1 °F 46.0 °F 56% 30.08 in 10.0 mi North 15.0 mph 20.7 mph N/A   Clear
12:56 PM 64.9 °F 46.0 °F 50% 30.07 in 10.0 mi North 15.0 mph 20.7 mph N/A   Clear
1:56 PM 66.9 °F 44.1 °F 44% 30.08 in 10.0 mi NNE 10.4 mph 18.4 mph N/A   Clear
2:56 PM 68.0 °F 44.1 °F 42% 30.09 in 10.0 mi NNE 12.7 mph 19.6 mph N/A   Clear
3:56 PM 69.1 °F 45.0 °F 42% 30.09 in 10.0 mi North 11.5 mph 16.1 mph N/A   Partly Cloudy
4:56 PM 69.1 °F 45.0 °F 42% 30.11 in 10.0 mi Variable 5.8 mph - N/A   Partly Cloudy
5:56 PM 69.1 °F 45.0 °F 42% 30.11 in 10.0 mi NE 5.8 mph - N/A   Clear
6:56 PM 66.9 °F 45.0 °F 45% 30.14 in 10.0 mi ENE 11.5 mph - N/A   Clear
7:56 PM 64.9 °F 44.1 °F 47% 30.14 in 10.0 mi East 11.5 mph - N/A   Clear
8:56 PM 61.0 °F 45.0 °F 56% 30.16 in 10.0 mi ENE 9.2 mph - N/A   Clear
9:56 PM 57.9 °F 45.0 °F 62% 30.18 in 10.0 mi ENE 9.2 mph - N/A   Clear
10:56 PM 57.0 °F 45.0 °F 64% 30.20 in 10.0 mi ESE 9.2 mph - N/A   Scattered Clouds
11:56 PM 54.0 °F 45.0 °F 72% 30.21 in 10.0 mi ESE 6.9 mph - N/A   Clear